Location: Obersdorf
(47.4079°N, 10.2781°E)
Time: 02:52:13
(UTC+01:00)

XW-2C - Pass Details

Date: 05 December 2021
Orbit: 503 x 523 km, 97.5° (Epoch: 16 January)

Event Time Altitude Azimuth Distance (km) Brightness Sun altitude
Rises 06:03:06 0° 18° (NNE) 2,670 ? -17.3°
Reaches altitude 10° 06:05:17 10° 24° (NNE) 1,776 ? -17.0°
Maximum altitude 06:08:59 47° 99° (E) 705 ? -16.4°
Drops below altitude 10° 06:12:40 10° 174° (S) 1,760 ? -15.8°
Sets 06:14:49 0° 181° (S) 2,642 ? -15.4°
